Location: eljas
(40.1958°N, 6.8661°W)
Time: 03:32:04
(UTC+02:00)

Daily predictions for brighter satellites

Satellite Brightness Start Highest point End
(mag) Time Altitude Azimuth Time Altitude Azimuth Time Altitude Azimuth
Cosmos 2297 Rocket 4.3 00:03:05 10° WNW 00:06:53 19° W 00:09:08 15° SW
Cosmos 2227 4.3 00:04:12 10° NNW 00:09:32 71° WNW 00:09:32 71° WNW
RESURS DK-1 4.3 00:08:04 10° NW 00:10:29 27° WNW 00:10:29 27° WNW
H-2A R/B 2.8 00:17:55 46° N 00:17:55 46° N 00:21:23 10° N
Terra 3.2 00:26:57 35° N 00:26:57 35° N 00:29:43 10° N
Tsikada Rocket 4.3 00:19:21 10° NNW 00:25:41 62° W 00:25:53 62° WSW
GEOS 3 Rocket 4.4 00:23:29 10° NNE 00:27:20 46° N 00:27:20 46° N
SL-16 R/B 3.4 00:51:52 37° N 00:51:52 37° N 00:55:17 10° NNE
Cosmos 2360 Rocket 4.2 01:11:50 20° NNE 01:11:50 20° NNE 01:13:31 10° NNE
Cosmos 1980 Rocket 4.5 01:04:00 10° W 01:08:03 20° NW 01:12:08 10° N
USA 215 4.0 01:10:12 44° W 01:10:12 44° W 01:14:48 10° NW
BREEZE-M DEB (TANK) 4.2 00:57:26 10° WNW 01:07:45 54° WNW 01:07:45 54° WNW
ATLAS CENTAUR R/B 4.5 01:10:43 56° E 01:10:43 56° E 01:29:16 10° NE
Cosmos 2263 Rocket 4.0 01:32:29 10° NW 01:34:53 25° NW 01:34:53 25° NW
Cosmos 2322 Rocket 4.0 01:39:50 25° NW 01:39:50 25° NW 01:43:46 10° N
Cosmos 2278 Rocket 4.1 02:15:51 10° N 02:18:31 25° N 02:18:31 25° N
ATLAS 3B R/B 4.1 02:32:58 34° ENE 02:32:58 34° ENE 02:37:04 10° NE
Cosmos 2360 Rocket 4.4 02:53:34 18° NW 02:53:34 18° NW 02:56:24 10° N
COSMOS 2455 4.4 03:05:46 32° NNE 03:05:46 32° NNE 03:08:48 10° NNE
Cosmos 2219 Rocket 4.0 03:16:27 27° N 03:16:27 27° N 03:19:07 10° NNE
SL-16 R/B 3.9 03:27:08 29° NE 03:27:08 29° NE 03:29:53 10° NNE
Cosmos 2333 Rocket 3.8 03:27:47 30° N 03:27:47 30° N 03:30:51 10° NNE
Cosmos 2237 Rocket 3.8 03:32:26 30° N 03:32:26 30° N 03:35:26 10° NNE
CZ-4C R/B 3.7 03:45:48 31° NE 03:45:48 31° NE 03:48:57 10° NE
SL-16 R/B 4.1 04:05:25 20° ESE 04:08:25 29° ENE 04:13:36 10° N
ATLAS 3B R/B 3.7 04:20:13 38° NW 04:20:49 38° NW 04:27:40 10° NNE
Cosmos 1553 Rocket 4.1 04:29:21 68° NE 04:29:21 68° NE 04:34:51 10° N
Cosmos 1745 Rocket 4.2 04:27:02 10° N 04:33:24 68° E 04:33:34 67° E
Cosmos 1943 4.1 04:38:12 39° ESE 04:38:12 39° ESE 04:43:19 10° NE
CZ-2D R/B 3.2 04:36:23 10° NNE 04:41:13 36° E 04:41:26 36° ESE
SL-08 R/B 4.5 04:38:47 10° N 04:44:10 70° NNW 04:44:10 70° NNW
Cosmos 2369 Rocket 3.2 04:44:36 10° N 04:49:58 44° ENE 04:55:19 10° SE
ATLAS CENTAUR R/B 2.8 04:51:35 10° NNW 04:55:40 36° NE 04:55:49 36° NE
UNK 4.4 04:57:27 53° ENE 04:57:27 53° ENE 05:01:39 10° N
BREEZE-M DEB (TANK) 4.4 05:00:15 35° N 05:01:13 41° NNE 05:07:04 10° E
Spot 4 Rocket 4.2 04:56:50 10° N 05:01:20 66° N 05:01:20 66° N
IRS-1D 3.6 04:57:16 10° NNE 05:02:28 71° ESE 05:02:28 71° ESE
Cosmos 1726 4.2 05:06:09 24° N 05:06:09 24° N 05:07:47 10° N
ADEOS 3.8 05:01:10 10° N 05:05:41 60° NNW 05:05:41 60° NNW
SL-16 R/B 3.8 05:09:01 21° NW 05:09:01 21° NW 05:13:05 10° N
USA 234 3.1 05:02:50 10° NE 05:09:24 81° NW 05:10:36 62° WSW
ARIANE 5 R/B 2.4 05:09:23 10° NNE 05:14:39 84° WNW 05:14:39 84° WNW
BREEZE-M DEB (TANK) 4.0 05:14:31 39° W 05:16:48 52° NW 05:20:38 10° NE
Cosmos 1331 Rocket 3.9 05:11:31 10° NNW 05:16:49 84° ENE 05:17:36 66° SSE
Cosmos 883 Rocket 4.3 05:16:01 62° S 05:17:09 90° NE 05:23:18 10° N
Cosmos 1943 Rocket 3.9 05:12:29 10° N 05:17:34 32° ENE 05:22:35 10° ESE
Resurs 1-4 Rocket 2.0 05:14:32 10° NNE 05:19:50 85° ESE 05:20:23 72° S
Cosmos 1455 3.4 05:20:08 39° E 05:20:13 39° E 05:23:53 10° NNE
Cosmos 1733 Rocket 4.4 05:19:04 10° N 05:23:10 38° ENE 05:25:54 18° SE
Cosmos 1707 Rocket 4.3 05:25:35 45° NNW 05:25:35 45° NNW 05:28:59 10° N
Meteor 1-27 4.1 05:26:31 64° W 05:26:49 65° W 05:32:21 10° N
Cosmos 2315 Rocket 4.0 05:24:43 40° S 05:27:08 77° E 05:33:25 10° N
NOSS 3-2 (A) 3.8 05:26:16 47° W 05:27:24 52° NW 05:33:55 10° NNE
Cosmos 389 Rocket 4.5 05:29:16 22° ESE 05:30:06 24° E 05:32:58 10° NE
SeaSat 1 3.1 05:27:17 10° SE 05:32:04 54° ENE 05:36:53 10° NNW
CZ-4C R/B 3.6 05:30:59 24° WNW 05:32:11 26° NW 05:37:13 10° NNE
Cosmos 839 Rocket 4.2 05:29:43 10° NW 05:37:45 68° WSW 05:44:13 10° SSE
NOSS 3-3 (A) 4.4 05:30:20 10° NW 05:37:46 64° WSW 05:45:36 10° SSE
NOSS 3-3 (C) 4.4 05:30:26 10° NW 05:37:52 65° WSW 05:45:43 10° SSE
NOSS 3-2 (C) 3.9 05:41:48 40° W 05:43:32 51° NW 05:50:02 10° NNE
CENTAUR R/B 3.1 05:43:58 25° S 05:47:16 50° ESE 05:53:42 10° NE
Okean O Rocket 2.3 05:43:11 10° NNE 05:47:34 53° E 05:49:50 26° SSE
Cosmos 2251 Rocket 4.0 05:47:16 40° W 05:47:48 41° WNW 05:52:46 10° N
ATLAS 5 CENTAUR R/B 1.9 05:46:48 49° SSW 05:48:04 76° ESE 05:53:14 10° NE
Cosmos 1184 Rocket 3.7 05:45:04 10° N 05:48:25 49° E 05:49:45 30° SE
SL-16 R/B 2.8 05:50:31 40° SW 05:51:46 45° W 05:57:41 10° NNW
ERS-2 4.1 05:49:19 10° NNW 05:51:04 19° NW 05:51:04 19° NW
MOS 1-B 4.3 05:46:43 10° N 05:52:30 73° WNW 05:54:55 36° SSW
IRS-1C Rocket 4.3 05:49:31 10° NNE 05:54:47 69° ESE 05:58:16 22° S
Meteor 2-11 Rocket 4.3 05:55:36 31° SSW 05:58:37 71° W 06:04:41 10° N
Cosmos 1825 3.9 05:55:51 10° NNE 05:59:19 32° ENE 06:02:45 10° SE
Cosmos 1408 4.5 05:56:11 10° NNE 05:59:34 32° ENE 06:02:57 10° SE
CZ-2D R/B 3.5 05:56:58 10° N 06:01:21 66° WNW 06:02:29 46° SW
Cosmos 724 4.4 05:59:26 37° WSW 06:01:38 60° NW 06:07:37 10° NNE
Sich 1 Rocket 4.1 05:58:05 10° N 06:02:26 57° E 06:06:45 10° SSE
EO 1 Del DPAF 4.0 06:04:21 35° WNW 06:04:21 35° WNW 06:07:13 10° NNW
Meteor 2-3 Rocket 4.3 05:58:22 10° NNW 06:03:32 35° W 06:04:23 33° WSW
UNKNOWN OBJECT B 3.3 06:01:50 10° N 06:05:11 38° WNW 06:05:11 38° WNW
CZ-4B R/B 3.4 06:01:58 10° NNE 06:05:33 51° E 06:07:58 19° S
Cosmos 1869 3.2 06:08:40 44° SW 06:09:44 65° W 06:13:42 10° N
Pageos (A) 3.9 06:08:10 10° N 06:10:01 47° NE 06:10:01 47° NE
BREEZE-M DEB (TANK) 3.1 06:11:18 24° NNW 06:12:17 37° NNE 06:14:38 10° E
Cosmos 1933 3.9 06:08:59 14° S 06:12:22 59° E 06:16:25 10° NNE
CZ-2C R/B 3.5 06:10:23 10° S 06:14:49 80° WSW 06:19:17 10° NNW
COSMOS 2406 3.6 06:12:51 13° S 06:17:54 63° ESE 06:23:37 10° NNE
Nadezhda 1 Rocket 4.4 06:12:12 10° S 06:18:21 67° E 06:24:39 10° NNE
ARGOS Delta rocket 3.8 06:15:46 10° N 06:20:03 52° WNW 06:22:06 28° SW
Cosmos 1709 Rocket 4.5 06:14:37 10° NNW 06:20:25 39° W 06:24:08 20° SW
SL-27 R/B 2.5 06:18:54 27° S 06:20:47 80° ESE 06:24:27 10° NNE
CZ-2D R/B 3.2 06:16:44 10° N 06:21:08 27° WNW 06:22:45 23° W
Cosmos 1943 4.2 06:20:02 23° W 06:22:12 30° WNW 06:27:09 10° N
Cosmos 1892 4.1 06:21:25 10° NW 06:23:44 21° WNW 06:23:44 21° WNW
MOZ.5/SAFIR/RUBIN 5/SL-8 3.9 06:25:45 10° S 06:30:15 51° W 06:34:47 10° NNW
PSLV R/B 4.2 06:27:22 10° NNE 06:31:41 56° E 06:35:59 10° S
CZ-4B DEB 4.1 06:26:39 10° NNE 06:32:09 80° WNW 06:37:35 10° SSW
Cosmos 1862 Rocket 4.2 06:31:30 25° SW 06:33:23 36° WNW 06:37:28 10° N
Cosmos 2369 Rocket 3.1 06:29:13 10° NW 06:33:41 25° WSW 06:36:42 16° SW
ATLAS CENTAUR R/B 3.5 06:31:17 10° WNW 06:31:49 12° WNW 06:31:49 12° WNW
USA 129 3.9 06:35:32 12° NNE 06:35:32 12° NNE 06:35:41 10° NNE
CZ-4B R/B 3.1 06:30:42 10° N 06:35:58 67° WNW 06:41:06 11° SSW
Okean 2 Rocket 3.7 06:37:33 10° N 06:42:00 60° E 06:46:28 10° SSE
Abrixas rocket 4.5 06:39:28 10° NW 06:42:10 22° N 06:44:53 10° ENE
Cosmos 2074 Rocket 4.0 06:36:09 10° NNW 06:42:14 60° W 06:48:20 10° S
Cosmos 407 Rocket 4.4 06:38:22 10° S 06:43:20 50° ESE 06:48:26 10° NNE
Cosmos 2154 Rocket 4.4 06:37:02 10° N 06:43:21 69° E 06:49:40 10° SSE
Cosmos 2327 Rocket 4.5 06:38:36 10° NNW 06:44:34 59° W 06:50:36 10° S
Cosmos 2184 Rocket 4.1 06:38:39 10° NNW 06:44:55 60° W 06:51:08 10° S
Okean 1-7 3.1 06:46:58 10° S 06:51:15 80° E 06:55:36 10° N
USA 234 4.5 06:46:15 10° NE 06:51:49 31° NNW 06:57:22 10° W
Cosmos 1455 4.2 06:55:12 13° W 06:56:09 13° WNW 06:58:08 10° NW
Resurs 1-4 Rocket 4.0 06:56:43 10° NW 06:58:55 13° WNW 07:01:09 10° W
PSLV R/B 3.3 06:57:05 12° W 07:00:17 81° N 07:03:40 10° E
Cosmos 1943 Rocket 2.7 06:56:11 10° NW 07:01:17 36° WSW 07:06:21 10° S
Meteor PRIRODA 3.7 06:57:52 10° NNE 07:01:40 86° ESE 07:05:25 10° SSW
Cosmos 2341 Rocket 4.3 06:56:23 10° N 07:02:41 76° E 07:09:01 10° SSE
Cosmos 389 Rocket 4.2 07:03:24 13° WSW 07:05:01 16° WNW 07:07:20 10° NNW
Cosmos 1782 Rocket 3.6 07:03:31 10° NNW 07:07:46 54° W 07:11:59 10° S
Geosat 4.2 07:04:54 10° NNE 07:09:50 57° WNW 07:14:44 10° SW
SeaSat 1 3.7 07:06:23 10° SSW 07:09:51 19° WSW 07:13:19 10° WNW
Cosmos 2285 Rocket 4.3 07:08:18 10° NNW 07:14:26 48° WSW 07:20:30 10° S
CSL-04 DEB 4.5 07:10:19 10° NNE 07:14:30 84° WNW 07:18:47 10° SSW
Ariane Rocket 4.4 07:10:44 10° NNE 07:15:33 43° E 07:20:22 10° S
ADEOS II 2.1 07:11:01 10° N 07:16:14 65° WNW 07:21:25 10° SSW
Thor Agena Rocket 4.3 07:18:24 10° SSW 07:22:50 29° W 07:27:20 10° NW
Feng Yun 1-1 Rocket 4.3 07:17:44 10° N 07:23:02 59° WNW 07:28:19 10° SSW
Okean O Rocket 3.4 07:20:55 10° NNW 07:23:29 15° WNW 07:26:01 10° W
Meteor 1-31 Rocket 2.7 07:20:06 10° N 07:23:55 82° WNW 07:27:43 10° SSW
